Probability
0 0 0 0 1 3 6 7 6 5 4 4 3 1 0 0 0 0 1 2 3 3 3 3 3 3 3 2 1 0 0 0 0 0 0 0 0 0 0 0 0 0 0
0 0 0 0 1 2 4 5 6 6 6 5 4 2 0 0 0 0 0 1 2 3 3 3 3 3 3 3 2 1 1 0 0 0 0 0 0 0 0 0 0 0 0
0 0 0 0 0 1 1 3 4 5 6 6 5 2 1 0 0 0 0 0 1 2 3 3 3 3 3 3 3 3 2 1 0 0 0 0 0 0 0 0 0 0 0
0 0 0 0 0 0 0 1 1 3 5 5 5 4 2 1 0 0 0 0 0 1 2 3 3 3 3 3 3 3 3 2 1 0 0 0 0 0 0 0 0 0 0
0 0 0 0 0 1 1 0 0 1 2 3 3 3 2 1 0 0 0 0 0 0 1 3 3 3 3 2 2 2 2 2 1 0 0 0 0 0 0 0 0 0 0
0 0 0 0 0 1 1 0 0 1 1 1 1 1 1 0 0 0 0 0 0 0 1 2 3 3 1 1 1 1 0 1 1 0 0 0 0 0 0 0 0 0 0
0 0 0 0 0 1 1 0 0 0 0 0 0 0 0 0 0 0 0 0 0 0 0 1 2 2 1 0 0 0 0 0 0 0 0 0 0 0 0 0 0 0 0
0 0 0 0 0 0 0 0 0 0 0 0 0 0 0 0 0 0 0 0 0 0 0 0 1 1 0 0 0 0 0 0 0 0 0 0 0 0 0 0 0 0 0
0 0 0 0 0 0 0 0 0 0 1 0 0 0 0 0 0 0 0 0 0 0 0 0 0 0 0 0 0 0 0 0 0 0 0 0 0 0 0 0 0 0 0
0 0 0 0 0 0 0 0 0 0 0 0 0 0 0 0 0 0 0 0 0 0 0 0 0 0 0 0 0 0 0 0 0 0 0 0 0 0 0 0 0 0 0
0 0 0 0 0 0 0 0 0 0 0 0 0 0 0 0 0 0 0 0 0 0 0 0 0 0 0 0 0 0 0 0 0 0 0 0 0 0 0 0 0 0 0
0 0 0 0 0 0 0 0 0 0 0 0 0 0 0 0 0 0 0 0 0 0 0 0 0 0 0 0 0 0 0 0 0 0 0 0 0 0 0 0 0 0 0
0 0 0 0 0 0 0 0 0 0 0 0 0 0 0 0 0 0 0 0 0 0 0 0 0 0 0 0 0 0 0 0 0 0 0 0 0 0 0 0 0 0 0
0 0 0 0 0 0 0 0 0 0 0 0 0 0 0 0 0 0 0 0 0 0 0 0 0 0 0 0 0 0 0 0 0 0 0 0 0 0 0 0 0 0 0
0 0 0 0 0 0 0 0 0 0 0 0 0 0 0 0 0 0 0 0 0 0 0 0 0 0 0 0 0 0 0 0 0 0 0 0 0 0 0 0 0 0 0
0 0 0 0 0 0 0 0 0 0 0 0 0 0 0 0 0 0 0 0 0 0 0 0 0 0 0 0 0 0 0 0 0 0 0 0 0 0 0 0 0 0 0
0 0 0 0 0 0 0 0 0 0 0 0 0 0 0 0 0 0 0 0 0 0 0 0 0 0 0 0 0 0 0 0 0 0 0 0 0 0 0 0 0 0 0
0 0 0 0 0 0 0 0 0 0 0 0 0 0 0 0 0 0 0 0 0 0 0 0 0 0 0 0 0 0 0 0 0 0 0 0 0 0 0 0 0 0 0
0 0 0 0 0 0 0 0 0 0 0 0 0 0 0 0 0 0 0 0 0 0 0 0 0 0 0 0 0 0 0 0 0 0 0 0 0 0 0 0 0 0 0
0 0 0 0 0 0 0 0 0 0 0 0 0 0 0 0 0 0 0 0 0 0 0 0 0 0 0 0 0 0 0 0 0 0 0 0 0 0 0 0 0 0 0
0 0 0 0 0 0 0 0 0 0 0 0 0 0 0 0 0 0 0 0 0 0 0 0 0 0 0 0 0 0 0 0 0 0 0 0 0 0 0 0 0 0 0
0 0 0 0 0 0 0 0 0 0 0 0 0 0 0 0 0 0 0 0 0 0 0 0 0 0 0 0 0 0 0 0 0 0 0 0 0 0 0 0 0 0 0
0 0 0 0 0 0 0 0 0 0 0 0 0 0 0 0 0 0 0 0 0 0 0 0 0 0 0 0 0 0 0 0 0 0 0 0 0 0 0 0 0 0 0
0 0 0 0 0 0 0 0 0 0 0 0 0 0 0 0 0 0 0 0 0 0 0 0 0 0 0 0 0 0 0 0 0 0 0 0 0 0 0 0 0 0 0
0 0 0 0 0 0 0 0 0 0 0 0 0 0 0 0 0 0 0 0 0 0 0 0 0 0 0 0 0 0 0 0 0 0 0 0 0 0 0 0 0 0 0
0 0 0 0 0 0 0 0 0 0 0 0 0 0 0 0 0 0 0 0 0 0 0 0 0 0 0 0 0 0 0 0 0 0 0 0 0 0 0 0 0 0 0
Wind_Speed
4 4 4 4 3 3 3 3 3 3 3 3 3 3 3 3 3 3 4 5 6 6 6 6 7 6 5 5 5 5 5 6 8 6 4 3 4 4 3 4 4 5 4
4 4 4 4 4 4 4 4 4 4 4 3 3 3 3 3 3 4 4 5 5 6 6 6 7 5 6 5 5 6 6 6 6 8 5 4 4 4 5 5 4 4 4
5 4 4 4 4 4 4 4 4 4 4 4 3 3 3 3 3 4 4 4 5 6 6 6 6 6 6 5 5 5 5 5 5 6 5 4 3 3 4 4 5 4 4
5 4 5 5 5 5 4 4 4 4 4 4 4 4 3 3 3 3 4 4 4 4 5 5 6 6 6 5 4 5 5 5 5 5 5 4 3 3 3 3 4 4 4
4 4 5 5 5 5 5 5 4 4 4 4 4 4 3 3 3 3 3 4 4 4 3 3 4 4 4 4 4 5 5 4 4 4 5 4 3 2 3 3 5 4 4
4 4 4 4 5 5 5 5 5 5 4 4 4 4 4 3 3 4 4 4 4 4 4 3 3 2 2 3 4 4 4 5 5 5 5 5 4 4 3 3 4 3 4
4 4 4 4 4 5 5 4 4 5 5 5 4 4 4 5 5 5 4 4 4 3 3 3 2 1 2 2 2 3 3 3 4 5 6 5 5 4 4 4 4 4 5
4 4 5 5 5 5 4 4 5 4 4 4 4 5 5 4 5 4 4 3 3 3 3 3 3 2 1 1 2 2 2 3 3 4 4 4 3 3 3 4 4 4 4
4 5 5 5 5 5 5 5 5 5 4 4 4 4 5 5 5 4 3 3 2 3 3 3 3 3 1 2 2 2 2 2 2 2 2 2 3 3 2 1 2 2 3
6 6 5 5 5 5 5 5 5 4 4 4 4 4 4 4 5 4 4 2 3 3 2 2 2 2 2 2 3 3 3 2 1 1 2 3 3 3 3 2 2 2 2
6 6 5 5 5 5 5 4 4 4 4 4 4 4 4 4 5 4 4 2 3 3 3 3 2 2 3 2 3 2 2 1 1 1 1 2 2 2 2 3 3 3 3
5 5 6 5 5 4 4 4 4 4 3 3 4 4 3 3 4 4 4 4 4 3 3 3 2 3 3 2 1 1 0 1 1 1 0 1 2 2 3 3 3 3 4
5 5 6 5 5 4 4 4 3 3 3 3 3 4 3 3 3 5 5 5 5 3 3 3 3 3 2 1 1 1 0 0 0 1 1 1 1 2 3 3 3 3 3
6 6 5 5 5 4 4 4 3 3 4 4 4 4 4 3 3 3 2 2 2 2 2 1 2 1 1 1 1 1 1 1 1 1 1 1 2 2 2 2 3 3 3
6 5 5 5 5 4 4 4 5 4 4 5 5 4 4 5 4 5 3 2 2 2 2 1 1 1 0 0 1 1 1 1 1 1 1 1 2 2 2 2 3 3 3
5 5 5 4 4 4 4 4 6 6 7 9 8 7 5 6 7 6 6 5 4 3 2 2 2 1 1 1 1 0 1 1 1 1 1 1 2 2 3 3 3 3 4
6 6 5 5 4 4 4 5 5 5 6 7 8 8 7 7 7 6 5 4 3 2 2 2 2 2 2 1 1 1 1 1 1 1 1 1 2 2 2 3 3 3 4
6 6 6 5 5 5 5 5 5 5 5 4 5 6 6 6 5 4 3 3 2 1 2 2 2 2 2 2 1 1 1 1 1 1 1 1 2 2 2 3 3 4 4
6 5 5 5 5 5 5 5 5 5 5 5 4 4 4 4 4 3 2 2 2 2 2 2 2 2 2 1 1 1 1 2 2 2 2 2 2 2 3 3 4 5 5
5 6 6 5 5 5 5 4 5 5 5 4 4 4 3 2 3 2 2 2 2 2 2 2 2 2 2 2 2 2 2 2 2 2 2 2 2 2 3 4 4 4 4
5 5 6 5 5 5 4 5 5 4 4 4 4 4 5 4 4 3 3 3 3 3 2 2 2 2 2 2 2 2 3 3 2 2 2 2 2 3 3 3 4 4 4
4 4 4 5 4 4 5 4 4 5 5 5 4 4 5 3 3 3 3 3 3 2 2 2 2 2 2 3 3 3 3 3 3 3 3 2 3 3 3 3 4 4 4
5 5 4 4 4 5 5 4 4 4 4 4 4 3 3 3 3 3 3 3 2 2 2 2 3 2 2 2 3 3 4 4 3 3 3 3 3 3 3 4 4 5 5
4 5 4 4 4 4 4 4 4 4 4 4 4 4 4 4 3 4 3 2 2 2 2 2 3 4 4 4 3 3 4 4 3 3 5 4 4 4 4 4 4 5 5
4 4 4 4 4 4 4 4 4 4 4 4 4 4 4 4 3 3 3 2 3 3 3 3 3 3 5 6 5 5 5 6 5 4 4 4 5 5 5 5 4 5 5
4 4 4 3 3 4 4 4 4 4 4 4 4 4 4 4 3 3 3 3 3 3 3 3 4 5 5 5 6 7 7 7 7 7 5 4 5 4 4 4 5 5 5
Wind_Direction
13 8 6 3 359 357 353 344 334 325 324 326 320 301 283 269 262 255 253 241 234 236 236 236 241 240 240 241 243 247 248 250 258 268 269 267 258 262 278 282 283 283 280
1 360 359 359 359 359 349 336 332 324 321 319 314 316 309 298 282 258 256 251 243 244 243 241 244 242 241 244 243 245 248 249 255 265 268 265 260 271 279 281 286 287 287
358 356 353 354 354 352 342 336 335 327 324 322 313 307 301 296 287 270 260 262 253 249 249 248 249 248 249 248 249 251 253 256 255 259 266 269 268 278 283 282 286 287 290
356 355 354 349 344 339 337 338 337 331 326 321 310 299 294 290 285 285 277 268 268 261 255 254 252 247 249 251 253 257 256 253 252 253 259 262 263 276 274 279 283 286 288
350 351 350 346 346 347 347 345 342 335 327 318 309 305 299 291 293 293 288 281 273 268 259 254 256 260 261 261 258 257 253 253 253 252 256 258 256 266 268 276 276 290 286
340 339 341 342 345 345 344 344 344 340 335 332 324 314 308 307 316 304 289 275 271 266 266 258 251 252 265 263 262 262 258 253 255 256 257 258 265 267 277 278 282 289 287
328 331 335 337 337 337 336 338 338 334 331 330 325 322 318 320 327 318 303 285 271 262 262 258 248 247 251 264 263 254 260 264 254 257 258 263 267 265 263 262 265 270 275
321 326 330 329 327 329 329 329 329 326 322 319 318 317 311 314 325 319 304 278 275 270 267 265 256 252 255 264 273 276 287 284 267 255 257 268 280 286 273 268 271 276 281
311 313 315 313 312 314 317 319 319 315 312 311 309 306 303 306 321 319 316 282 272 274 275 271 262 256 258 230 226 246 277 314 8 13 338 329 332 327 306 274 283 281 283
302 302 302 299 296 298 302 305 307 304 303 306 299 296 295 301 316 321 317 286 278 281 282 275 265 268 271 235 232 224 237 268 309 346 358 356 346 348 345 301 269 262 281
302 299 296 293 291 291 294 295 298 299 299 300 298 298 297 299 302 311 314 292 282 280 275 272 272 278 281 263 250 248 240 243 243 256 315 340 344 340 336 330 312 279 265
296 291 289 289 287 287 288 291 293 290 290 293 294 294 292 295 296 296 296 288 291 277 277 284 288 290 290 293 287 322 191 158 189 228 279 317 323 324 327 326 322 309 291
287 284 284 287 284 281 276 276 279 277 276 281 284 286 289 292 292 292 288 288 292 289 288 299 306 311 307 310 44 354 350 127 187 231 266 296 312 310 314 316 319 310 297
280 282 282 282 283 280 273 265 262 262 266 269 272 277 283 286 290 295 290 290 300 305 302 313 320 340 15 39 28 25 20 3 298 279 306 318 319 317 317 319 312 317 305
279 280 279 274 275 274 269 265 264 260 259 264 266 267 269 273 283 288 291 292 290 284 293 283 271 279 309 6 17 22 16 15 0 348 329 315 311 317 321 325 311 305 294
274 276 274 273 271 270 274 276 265 267 273 269 270 272 270 273 284 281 283 283 273 260 262 240 238 234 232 238 243 310 327 330 334 318 302 301 307 313 314 317 309 297 295
263 269 272 271 268 265 265 268 278 278 270 272 273 273 272 275 272 275 279 282 263 241 243 231 230 234 239 240 239 249 267 293 304 284 280 286 295 299 301 303 302 298 296
264 263 263 266 265 262 261 263 265 269 276 274 274 272 272 273 272 274 275 274 243 227 230 226 233 237 236 239 244 252 259 261 259 264 271 278 280 281 285 291 293 294 296
262 262 262 263 262 260 259 259 259 260 261 267 274 269 267 267 265 263 255 246 243 241 236 233 236 236 239 242 246 250 251 251 250 255 256 260 264 268 274 282 286 288 287
255 256 258 259 258 256 254 254 255 256 256 254 255 261 264 256 251 252 255 251 245 245 238 235 234 232 234 233 234 235 241 242 240 245 250 254 261 265 268 275 281 286 286
259 256 249 250 250 250 251 250 251 252 252 254 255 255 259 256 250 250 255 253 250 246 238 234 233 228 227 227 229 231 237 243 243 246 250 256 260 265 273 278 282 282 286
254 254 250 248 250 248 249 249 248 249 250 254 260 260 258 257 253 253 256 258 252 244 240 235 235 234 229 227 229 232 236 241 242 243 250 255 258 262 266 271 278 282 283
251 250 249 247 247 246 246 244 243 245 248 252 255 256 254 251 252 254 256 255 252 248 244 236 235 237 236 236 239 237 238 239 240 239 244 251 255 261 264 269 271 277 280
248 247 246 246 242 241 243 246 246 247 249 251 253 254 253 252 254 256 254 252 253 252 247 242 241 240 241 247 247 247 248 250 248 239 237 241 250 257 260 265 269 272 274
249 246 245 244 243 243 244 246 247 247 247 247 249 250 252 253 254 252 251 248 249 251 250 250 245 243 241 245 248 249 249 251 249 240 236 238 243 248 254 261 266 271 272
251 247 246 245 244 245 245 247 248 248 248 249 249 250 250 250 249 250 251 246 244 248 252 252 245 246 252 254 251 250 249 247 240 234 229 231 236 243 247 253 259 265 270